www.pogodaiklimat.ru

Погода и климат >> Архив погоды >> Аргентина >> Сан-Мартин


ПОГОДА в Сан-Мартине

  • Прогноз погоды в Сан-Мартине
  • Монитор погоды в Сан-Мартине

АРХИВ ПОГОДЫ в Сан-Мартине

Время (UTC), дата Ветер
(напр.,м/с)
 
Видим.   Явления Облачность Т
(С)
Тd
(С)
f
(%)
Тe
(С)
Тes
(С)
Комфортность P
(гПа)
Po
(гПа)
Тmin
(С)
Tmax
(С)
R
(мм)
R24
(мм)
S
(см)
21 16.03 ЮВ 7 15 км 10/10 1200 м
[Sc]
+14.7 +12.0 84 +13 +13 1011.9 937.2
00 17.03 ЮВ 3 15 км 10/10 1200 м
[Sc]
+14.6 +10.8 78 +14 +14 1015.0 940.2 +13.9 +20.8
03 17.03 штиль 0 15 км 8/5 1200 м
[Sc Ac trans]
+15.0 +11.0 77 +15 +15 1014.6 940.2
06 17.03 штиль 0 15 км ясно +13.4 +10.6 83 +13 +13 1013.9 938.8
09 17.03 штиль 0 15 км ясно +12.0 +9.7 86 +11 +11 1012.4 937.2
12 17.03 ЮЗ 3 15 км ясно +13.6 +9.9 78 +13 +15 1012.3 937.3 +11.3 +15.2
15 17.03 СЗ 1 15 км ясно +19.0 +11.6 62 +21 +36 комфорт 1011.1 936.9
18 17.03 СВ 3 15 км ясно +23.4 +12.6 51 +26 +39 жарко 1006.9 933.4
21 17.03 С 1 15 км ясно +21.8 +14.2 62 +25 +28 комфорт 1005.6 931.8
00 18.03 ЮЗ 1 15 км ясно +18.6 +13.9 74 +20 +20 1007.2 933.0 +13.6 +25.0
03 18.03 Ю 1 15 км ясно +16.2 +12.3 78 +17 +17 1007.5 933.7
06 18.03 штиль 0 15 км ясно +13.8 +12.0 89 +13 +13 1007.2 933.7
09 18.03 штиль 0 15 км ясно +13.4 +10.8 84 +13 +13 1007.3 933.8
12 18.03 ЮЗ 1 15 км ясно +15.9 +11.6 76 +17 +19 1009.1 935.0 +13.1 +18.6
15 18.03 штиль 0 15 км ясно +24.0 +12.1 47 +26 +43 жарко 1007.7 934.5
18 18.03 Ю 3 15 км 1/1 1200 м
[Cu hum]
+26.9 +11.9 39 +28 +39 жарко 1004.0 931.0
21 18.03 штиль 0 15 км 1/1 1200 м
[Cu hum]
+26.7 +11.4 38 +28 +31 жарко 1002.3 929.4
00 19.03 ЮВ 1 15 км ясно +22.0 +13.3 58 +25 +25 комфорт 1004.1 930.9 +15.9 +27.6
03 19.03 ЮВ 7 15 км 6/6 1050 м
[Sc]
+20.2 +6.6 41 +21 +21 комфорт 1006.6 934.0
06 19.03 Ю 3 15 км 4/4 1050 м
[Sc]
+18.6 +4.5 39 +19 +19 1008.4 935.8
09 19.03 ЮВ 7 15 км 9/9 1050 м
[Sc]
+15.2 -1.1 33 +14 +14 1012.4 939.0
12 19.03 Ю 3 15 км 5/5 1200 м
[Sc]
+13.2 +2.1 47 +12 +13 1017.2 942.6 +12.7 +22.0
15 19.03 Ю 3 15 км 1/0
[Ci sp]
+17.5 +0.2 31 +18 +29 1016.8 942.6
18 19.03 ЮВ 4 15 км 8/3 1200 м
[Sc Cs]
+19.4 +0.8 29 +20 +25 1015.2 941.2
21 19.03 ЮВ 4 15 км 8/8 1200 м
[Sc]
+20.3 +1.5 29 +21 +21 комфорт 1016.5 942.1
00 20.03 штиль 0 15 км 6/6 1200 м
[Sc]
+15.5 +2.6 42 +15 +15 1020.0 944.5 +13.2 +20.3
03 20.03 штиль 0 15 км 3/0
[Cs]
+13.1 +2.6 49 +13 +13 1021.9 946.5
06 20.03 штиль 0 15 км 1/0
[Cs]
+10.2 +1.7 56 +10 +10 1021.5 946.0
09 20.03 штиль 0 15 км ясно +9.1 +1.1 57 +9 +9 1020.8 945.3
12 20.03 штиль 0 15 км 9/8 1050 м
[Sc Ac trans]
+9.9 +1.0 54 +10 +10 1021.6 945.6 +8.1 +15.5
15 20.03 штиль 0 15 км 9/0
[Ac As]
+16.1 +3.2 42 +16 +23 1020.6 945.0
18 20.03 СВ 1 15 км 1/0
[Ac As]
+19.0 +1.1 30 +20 +35 опасность
простуды
1018.7 943.4
21 20.03 штиль 0 15 км 6/0
[Ci fib]
+19.4 +2.8 33 +20 +22 1017.5 942.2
00 21.03 штиль 0 15 км ясно +14.1 +6.0 58 +14 +14 1018.3 942.2 +9.9 +20.3
03 21.03 штиль 0 15 км 4/0
[Cs]
+11.9 +7.3 73 +11 +11 1017.5 942.1
06 21.03 штиль 0 15 км 3/0
[Cs]
+10.3 +5.0 70 +10 +10 1016.1 941.0
09 21.03 штиль 0 15 км ясно +9.0 +5.4 78 +8 +8 1014.8 939.7
12 21.03 штиль 0 15 км ясно +11.4 +6.0 69 +11 +14 1014.9 939.4 +7.9 +14.1
15 21.03 ЮВ 1 15 км 3/0
[Ci]
+19.0 +9.3 53 +21 +35 комфорт 1013.4 938.6
18 21.03 С 7 15 км 3/0
[Ci]
+23.2 +6.1 33 +24 +28 комфорт 1009.8 935.7
21 21.03 СЗ 3 15 км 1/0
[Ci]
+23.7 +6.4 33 +24 +26 комфорт 1008.0 933.8
00 22.03 штиль 0 15 км ясно +18.0 +8.7 55 +18 +18 1009.9 935.2 +11.4 +24.5
03 22.03 штиль 0 15 км ясно +15.2 +9.6 69 +15 +15 1011.0 936.9
06 22.03 штиль 0 15 км ясно +12.2 +9.9 86 +12 +12 1011.1 937.0
09 22.03 штиль 0 15 км 1/0
[Ci]
+11.2 +9.3 88 +11 +11 1011.0 936.9
12 22.03 штиль 0 15 км ясно +13.0 +8.8 76 +13 +15 1013.8 939.0 +10.1 +18.0
15 22.03 ЮВ 1 15 км ясно +20.4 +11.3 56 +23 +38 комфорт 1013.8 939.6
18 22.03 С 1 15 км ясно +24.6 +11.2 43 +26 +41 жарко 1010.9 937.0
21 22.03 штиль 0 15 км ясно +25.9 +10.0 37 +27 +30 жарко 1009.3 935.6
00 23.03 штиль 0 15 км ясно +19.4 +12.7 65 +21 +21 комфорт 1010.5 936.2 +13.0 +26.3
03 23.03 штиль 0 15 км ясно +17.5 +10.6 64 +18 +18 1010.6 936.9
06 23.03 штиль 0 15 км ясно +14.3 +11.2 82 +14 +14 1009.8 936.2
09 23.03 штиль 0 15 км ясно +12.4 +10.9 91 +12 +12 1008.6 935.0
12 23.03 СЗ 1 15 км ясно +15.2 +10.4 73 +16 +18 1009.8 935.8 +11.6 +19.4
15 23.03 ЮЗ 1 15 км ясно +23.8 +11.4 46 +25 +40 комфорт 1007.8 934.6
18 23.03 В 1 15 км ясно +28.0 +12.4 38 +29 +44 жарко 1006.5 933.7

 

Местоположение метеостанции Сан-Мартин (Аргентина): широта -33.08 долгота -68.41 высота над уровнем моря 653 м.

В архиве по умолчанию представлена погода в Сан-Мартине за последнюю неделю. Архивные данные за месяц целиком и за предыдущие месяцы, начиная с января 2011 года, Вы можете получить, выбрав интересующий диапазон дат из раскрывающегося списка и нажав кнопку "Ввод!".


*Определитесь, кто Вы:
робот инопланетянин человек

Внимание! Время в таблицах - всемирное. Для получения местного времени необходимо прибавить поправку, которая равна -3 ч.

Смотрите также архив погоды в соседних городах и на ближайших метеорологических станциях:

Погода в Мендосе (Аргентина) (44 км)
Погода на Пасо Лос Либертадорес (Чили) (162 км)
Погода в Сан-Рафаэле (Аргентина) (167 км)
Погода в Сан-Хуане (Аргентина) (187 км)
Погода в Сан-Хосе-де-Майпо (Чили) (190 км)
Погода в Сан-Луисе (Аргентина) (193 км)
Погода в Сантьяго Агуас Андинас (Чили) (206 км)
Погода в Сантьяго (Чили) (215 км)
Погода в Ло-Пинто (Чили) (217 км)
Погода в Пудауэле (Чили) (223 км)

Пояснения к столбцам:

Ветер - указаны скорость ветра в м/с - средняя за 10 мин, порывы в срок и между сроками (в фигурных скобках) и направление, откуда дует ветер: С - северный, СВ - северо-восточный, В - восточный, ЮВ - юго-восточный, Ю - южный, ЮЗ - юго-западный, З - западный, СЗ - северо-западный.
Видимость - горизонтальная дальность видимости в метрах или километрах. При видимости от 1 до 10 км при отсутствии осадков обычно наблюдается дымка, при ухудшении видимости до 1 км и менее - туман. В сухую погоду видимость может ухудшаться дымом, пылью или мглою.
Явления - указаны атмосферные явления, наблюдавшиеся в срок или в последний час перед сроком; фигурными скобками обозначены явления, наблюдавшиеся между сроками (за 1-3 часа до срока); квадратными скобками обозначены град или гололедные отложения с указанием их диаметра в мм.
Облачность - указаны через наклонную черту общая и нижняя облачность в баллах и высота нижней границы облаков в метрах; квадратными скобками обозначены формы облаков: Ci - перистые, Cs - перисто-слоистые, Cc - перисто-кучевые, Ac - высококучевые, As - высокослоистые, Sc - слоисто-кучевые, Ns - слоисто-дождевые, Cu - кучевые, Cb - кучево-дождевые. Подробнее классификацию облаков см. в Атласе облаков (PDF).
T - Температура воздуха - температура, измеренная на высоте 2 м над землей.
Td - Температура точки росы - температура, при понижении до которой содержащийся в воздухе водяной пар достигнет насыщения.
f - Относительная влажность воздуха - влажноcть воздуха, измеренная на высоте 2 м над землей.
Te - Эффективная температура - температура, которую ощущает одетый по сезону человек в тени. Характеристика душности погоды. При расчете учитывается влияние влажности воздуха и скорости ветра на теплоощущения человека.
Tes - Эффективная температура на солнце - температура, которую ощущает человек, с поправкой на солнечный нагрев. Характеристика знойности погоды. Зависит от высоты солнца над горизонтом, облачности и скорости ветра. Ночью, в пасмурную погоду, а также при ветре 12 м/с и более поправка равна нулю.
P - Атмосферное давление - приведенное к уровню моря атмосферное давление.
Po - Атмосферное давление - измеренное на уровне метеостанции атмосферное давление.
Tmin - Минимальная температура - минимум температуры воздуха на высоте 2 м над землей.
Tmax - Максимальная температура - максимум температуры воздуха на высоте 2 м над землей.
R - Количество осадков - Количество выпавших осадков за период времени, мм. При наведении курсора мыши на число - период времени, за который выпало указанное количество осадков.
R24 - Количество осадков - Количество выпавших осадков за 24 часа, мм.
S - Снежный покров - Высота снежного покрова, см. При наведении курсора мыши на число - состояние снежного покрова и степень покрытия местности в баллах.